Home   Weather   Prudhoe Bay   Past weeks

Flag for USA Past Weather in Prudhoe Bay, Alaska, USA — Yesterday and Last 2 Weeks

11 °F

Passing clouds.

Feels Like: 11 °F
Forecast: 14 / 21 °F
Wind: No wind

Location: Deadhorse Airport

Current Time: Oct 24, 2016 at 2:40:17 AM

Latest Report: Oct 24, 2016 at 1:53 AM

Visibility: 10 mi

Pressure: 30.22 "Hg

Humidity: 81%

Dew Point: 6 °F

Location of Prudhoe BayLocation

Past Weather in Prudhoe Bay — Graph


Prudhoe Bay Temperature Yesterday

Maximum temperature yesterday: 29 °F (at 1:53 AM)
Minimum temperature yesterday: 8 °F (at 11:53 PM)
Average temperature yesterday: 23 °F

High & Low Weather Summary for the Past Weeks

High34 °F (Oct 10, 1:53 PM)100% (Oct 10, 2:53 AM)30.24 "Hg (Oct 10, 2:53 AM)
Low5 °F (Oct 19, 8:53 AM)63% (Oct 16, 3:53 PM)29.62 "Hg (Oct 20, 6:56 AM)
Average25 °F86%29.97 "Hg
* Reported Oct 9 12:53 AM — Oct 24 12:53 AM, Prudhoe Bay, Weather by CustomWeather, © 2016

Note: Actual official high and low records may vary slightly from our data, if they occured in-between our weather recording intervals... More about our weather records


Prudhoe Bay Weather History for the Previous 24 Hours

Scroll right to see more
Time TempWeatherWind HumidityBarometerVisibility
12:53 AM
Mon, Oct 24
8 °FPassing clouds.7 mph87%30.22 "Hg10 mi
11:53 PM
Sun, Oct 23
8 °FPassing clouds.7 mph87%30.22 "Hg10 mi
10:53 PM13 °FPassing clouds.12 mph77%30.22 "Hg10 mi
9:53 PM15 °FPassing clouds.9 mph77%30.23 "Hg10 mi
8:53 PM18 °FPassing clouds.8 mph77%30.23 "Hg10 mi
7:53 PM23 °FMostly cloudy.9 mph78%30.24 "Hg10 mi
6:53 PM25 °FMostly cloudy.8 mph75%30.24 "Hg10 mi
5:53 PM26 °FMostly cloudy.12 mph74%30.24 "Hg10 mi
4:53 PM27 °FMostly cloudy.12 mph75%30.24 "Hg10 mi
3:53 PM28 °FOvercast.13 mph75%30.24 "Hg10 mi
2:53 PM28 °FOvercast.12 mph78%30.24 "Hg10 mi
1:53 PM28 °FPartly sunny.12 mph78%30.24 "Hg10 mi
12:53 PM27 °FPartly sunny.10 mph81%30.24 "Hg10 mi
11:53 AM25 °FPartly sunny.9 mph81%30.24 "Hg10 mi
10:53 AM25 °FPartly sunny.12 mph81%30.24 "Hg10 mi
9:53 AM22 °FPartly sunny.9 mph85%30.24 "Hg10 mi
8:53 AM19 °FPassing clouds.10 mph81%30.24 "Hg10 mi
7:53 AM18 °FPassing clouds.13 mph80%30.23 "Hg10 mi
6:53 AM18 °FPassing clouds.10 mph88%30.22 "Hg10 mi
5:53 AM19 °FPassing clouds.13 mph88%30.22 "Hg10 mi
4:53 AM23 °FOvercast.12 mph88%30.22 "Hg10 mi
3:53 AM28 °FMostly cloudy.16 mph85%30.21 "Hg10 mi
2:53 AM29 °FMostly cloudy.15 mph85%30.20 "Hg10 mi
Weather by CustomWeather, © 2016

See weather overviewHow to use our weather pages